GW3673 Weather Reports


time (UTC)temp
C
wind
direction
speed
KPH
gust
KPH
rain 1hr
cm
rain 24hr
cm
rain mn
cm
humidity
%
barometer
mb
20260510201536 11 313 0.0 4.8 0.00 0.00 0.00 58 1014.9
20260510200516 12 317 0.0 4.8 0.00 0.00 0.00 57 1014.9
20260510195516 12 312 0.0 4.8 0.00 0.00 0.00 56 1014.8
20260510194519 12 313 0.0 3.2 0.00 0.00 0.00 55 1014.9
20260510193520 12 325 1.6 6.4 0.00 0.00 0.00 54 1015.0
20260510192519 13 317 1.6 9.7 0.00 0.00 0.00 53 1014.9
20260510191517 13 312 1.6 6.4 0.00 0.00 0.00 52 1014.8
20260510190517 13 13 3.2 9.7 0.00 0.00 0.00 51 1014.8
20260510185618 13 342 0.0 4.8 0.00 0.00 0.00 54 1014.8
20260510184518 13 310 0.0 3.2 0.00 0.00 0.00 53 1014.7
20260510183521 13 53 1.6 8.0 0.00 0.00 0.00 53 1014.7
20260510182518 13 3 1.6 9.7 0.00 0.00 0.00 53 1014.8
20260510181538 14 93 1.6 8.0 0.00 0.00 0.00 52 1014.8
20260510180522 14 324 1.6 4.8 0.00 0.00 0.00 54 1014.8
20260510175518 13 321 1.6 9.7 0.00 0.00 0.00 54 1014.9
20260510174519 13 314 3.2 8.0 0.00 0.00 0.00 54 1015.0
20260510173518 13 343 1.6 6.4 0.00 0.00 0.00 54 1015.0
20260510172619 13 327 1.6 9.7 0.00 0.00 0.00 55 1015.1
20260510171519 13 61 1.6 9.7 0.00 0.00 0.00 55 1015.3
20260510170519 13 65 1.6 8.0 0.00 0.00 0.00 56 1015.4
20260510165519 14 92 1.6 6.4 0.00 0.00 0.00 56 1015.3
20260510164517 14 329 1.6 8.0 0.00 0.00 0.00 55 1015.4
20260510163516 13 68 1.6 4.8 0.00 0.00 0.00 56 1015.6
20260510162537 13 115 3.2 9.7 0.00 0.00 0.00 57 1015.7
20260510161518 14 77 3.2 9.7 0.00 0.00 0.00 57 1015.8
20260510160517 13 63 3.2 9.7 0.00 0.00 0.00 59 1016.0
20260510155518 13 109 1.6 8.0 0.00 0.00 0.00 61 1016.1
20260510154521 13 31 3.2 9.7 0.00 0.00 0.00 60 1016.2
20260510153520 13 355 1.6 6.4 0.00 0.00 0.00 61 1016.2
20260510152521 13 107 1.6 8.0 0.00 0.00 0.00 61 1016.2
20260510151518 13 125 3.2 9.7 0.00 0.00 0.00 61 1016.4
20260510150518 13 110 3.2 11.3 0.00 0.00 0.00 62 1016.5
20260510145518 13 121 3.2 12.9 0.00 0.00 0.00 63 1016.6
20260510144518 13 97 3.2 12.9 0.00 0.00 0.00 64 1016.8
20260510143522 13 87 3.2 12.9 0.00 0.00 0.00 64 1016.9
20260510142522 12 88 1.6 4.8 0.00 0.00 0.00 65 1017.1
20260510141519 12 92 3.2 11.3 0.00 0.00 0.00 66 1017.2
20260510140519 12 115 3.2 11.3 0.00 0.00 0.00 65 1017.3
20260510135519 12 86 1.6 9.7 0.00 0.00 0.00 66 1017.3
20260510134537 12 74 1.6 8.0 0.00 0.00 0.00 67 1017.4
20260510133516 12 128 3.2 12.9 0.00 0.00 0.00 67 1017.5
20260510132620 12 95 1.6 9.7 0.00 0.00 0.00 69 1017.5
20260510131520 12 106 3.2 11.3 0.00 0.00 0.00 69 1017.5
20260510130521 12 126 4.8 8.0 0.00 0.00 0.00 70 1017.6
20260510125637 12 68 3.2 11.3 0.00 0.00 0.00 70 1017.7
20260510124518 11 124 3.2 12.9 0.00 0.00 0.00 71 1017.8
20260510123518 11 101 3.2 9.7 0.00 0.00 0.00 71 1017.8
20260510122518 11 82 4.8 9.7 0.00 0.00 0.00 72 1018.0
20260510121518 11 82 3.2 9.7 0.00 0.00 0.00 72 1018.0
20260510120515 11 122 1.6 6.4 0.00 0.00 0.00 73 1018.1
20260510115519 11 2 1.6 8.0 0.00 0.00 0.00 74 1018.2
20260510114519 11 50 1.6 8.0 0.00 0.00 0.00 75 1018.3
20260510113522 11 125 3.2 14.5 0.00 0.00 0.00 75 1018.3
20260510112519 11 17 3.2 9.7 0.00 0.00 0.00 75 1018.4
20260510111519 11 354 3.2 9.7 0.00 0.00 0.00 76 1018.5
20260510110519 11 89 3.2 11.3 0.00 0.00 0.00 76 1018.6
20260510105517 11 99 3.2 12.9 0.00 0.00 0.00 77 1018.6
20260510104516 11 115 3.2 9.7 0.00 0.00 0.00 76 1018.6
20260510103603 10 74 3.2 9.7 0.00 0.00 0.00 77 1018.7
20260510102520 10 104 4.8 12.9 0.00 0.00 0.00 77 1018.8
20260510101520 10 105 3.2 11.3 0.00 0.00 0.00 78 1018.8
20260510100517 10 63 3.2 11.3 0.00 0.00 0.00 78 1018.9
20260510095638 10 121 4.8 14.5 0.00 0.00 0.00 78 1018.8
20260510094558 10 100 1.6 6.4 0.00 0.00 0.00 79 1018.8
20260510093518 10 112 4.8 12.9 0.00 0.00 0.00 79 1018.9
20260510092521 10 121 4.8 12.9 0.00 0.00 0.00 79 1018.9
20260510091518 10 100 3.2 8.0 0.00 0.00 0.00 79 1018.9
20260510090518 10 112 3.2 11.3 0.00 0.00 0.00 79 1018.8
20260510085519 10 105 3.2 12.9 0.00 0.00 0.00 79 1019.0
20260510084519 10 107 4.8 11.3 0.00 0.00 0.00 80 1019.0
20260510083519 10 121 3.2 11.3 0.00 0.00 0.00 80 1019.0
20260510082519 10 119 3.2 11.3 0.00 0.00 0.00 80 1019.0
20260510081516 10 106 4.8 12.9 0.00 0.00 0.00 80 1019.0
20260510080516 10 95 3.2 9.7 0.00 0.00 0.00 80 1019.1
20260510075516 10 130 1.6 9.7 0.00 0.00 0.00 80 1019.0
20260510074539 10 140 4.8 12.9 0.00 0.00 0.00 80 1018.9
20260510073520 10 76 4.8 12.9 0.00 0.00 0.00 80 1018.8
20260510072517 10 66 3.2 8.0 0.00 0.00 0.00 81 1018.8
20260510071637 10 107 3.2 14.5 0.00 0.00 0.00 80 1018.7
20260510070518 10 115 4.8 11.3 0.00 0.00 0.00 80 1018.6
20260510065519 10 119 4.8 12.9 0.00 0.00 0.00 81 1018.5
20260510064600 10 106 3.2 14.5 0.00 0.00 0.00 81 1018.5
20260510063524 10 126 4.8 12.9 0.00 0.00 0.00 81 1018.4
20260510062538 10 125 3.2 12.9 0.00 0.00 0.00 81 1018.4
20260510061519 10 90 3.2 11.3 0.00 0.00 0.00 81 1018.4
20260510060519 10 128 3.2 9.7 0.00 0.00 0.00 81 1018.4
20260510055519 10 113 1.6 8.0 0.00 0.00 0.00 81 1018.3
20260510054519 10 96 3.2 11.3 0.00 0.00 0.00 81 1018.3
20260510053518 10 108 3.2 8.0 0.00 0.00 0.00 81 1018.4
20260510052519 10 115 1.6 8.0 0.00 0.00 0.00 81 1018.3
20260510051519 10 123 3.2 9.7 0.00 0.00 0.00 81 1018.3
20260510050519 10 112 3.2 11.3 0.00 0.00 0.00 81 1018.3
20260510045540 10 121 4.8 14.5 0.00 0.00 0.00 81 1018.4
20260510044517 10 94 1.6 8.0 0.00 0.00 0.00 81 1018.3
20260510043617 10 95 3.2 8.0 0.00 0.00 0.00 80 1018.2
20260510042517 10 108 3.2 11.3 0.00 0.00 0.00 80 1018.2
20260510040516 10 108 4.8 12.9 0.00 0.00 0.00 80 1018.3
20260510035517 10 100 3.2 14.5 0.00 0.00 0.00 80 1018.3
20260510034517 10 99 1.6 8.0 0.00 0.00 0.00 80 1018.3
20260510033518 10 125 4.8 17.7 0.00 0.00 0.00 80 1018.3
20260510032517 10 119 3.2 9.7 0.00 0.00 0.00 80 1018.4
20260510031518 10 125 3.2 11.3 0.00 0.00 0.00 80 1018.5
20260510030518 10 113 3.2 14.5 0.00 0.00 0.00 80 1018.6
20260510025558 10 70 3.2 8.0 0.00 0.00 0.00 80 1018.6
20260510024538 10 123 4.8 11.3 0.00 0.00 0.00 80 1018.6
20260510023517 10 129 3.2 11.3 0.00 0.00 0.00 80 1018.6
20260510022638 10 106 4.8 14.5 0.00 0.00 0.00 80 1018.5
20260510021637 11 116 4.8 14.5 0.00 0.00 0.00 79 1018.6
20260510020518 11 83 3.2 11.3 0.00 0.00 0.00 79 1018.5
20260510015518 11 111 3.2 11.3 0.00 0.00 0.00 79 1018.5
20260510014518 11 88 3.2 9.7 0.00 0.00 0.00 78 1018.5
20260510013518 11 118 3.2 9.7 0.00 0.00 0.00 78 1018.5
20260510012657 11 105 3.2 14.5 0.00 0.00 0.00 78 1018.6
20260510011517 11 126 3.2 11.3 0.00 0.00 0.00 78 1018.6
20260510010519 11 118 4.8 11.3 0.00 0.00 0.00 77 1018.6
20260510005539 12 91 3.2 11.3 0.00 0.00 0.00 78 1018.6
20260510004517 12 83 3.2 11.3 0.00 0.00 0.00 78 1018.6
20260510003518 12 53 3.2 9.7 0.00 0.00 0.00 77 1018.6
20260510002518 12 102 3.2 11.3 0.00 0.00 0.00 76 1018.6
20260510001518 12 114 3.2 11.3 0.00 0.00 0.00 75 1018.6
20260510000515 12 116 4.8 14.5 0.00 0.00 0.00 75 1018.4
20260509235519 12 107 3.2 8.0 0.00 0.00 0.00 76 1018.3
20260509234516 12 41 3.2 19.3 0.00 0.00 0.00 75 1018.3
20260509233519 13 107 3.2 11.3 0.00 0.00 0.00 76 1018.2
20260509232519 13 110 3.2 9.7 0.00 0.00 0.00 76 1018.2
20260509231519 13 101 3.2 12.9 0.00 0.00 0.00 76 1018.0
20260509230519 13 95 3.2 12.9 0.00 0.00 0.00 76 1018.1
20260509225519 13 93 3.2 11.3 0.00 0.00 0.00 76 1018.1
20260509224516 13 113 3.2 9.7 0.00 0.00 0.00 76 1018.0
20260509223517 13 123 3.2 9.7 0.00 0.00 0.00 76 1017.9
20260509222520 13 117 3.2 11.3 0.00 0.00 0.00 76 1017.9
20260509221520 14 101 3.2 17.7 0.00 0.00 0.00 75 1017.8
20260509220617 14 112 1.6 9.7 0.00 0.00 0.00 75 1017.8
20260509215517 14 87 3.2 14.5 0.00 0.00 0.00 75 1017.8
20260509214521 14 66 3.2 8.0 0.00 0.00 0.00 74 1017.8
20260509213538 15 84 4.8 12.9 0.00 0.00 0.00 74 1017.7
20260509212538 15 54 4.8 14.5 0.00 0.00 0.00 74 1017.6
20260509211518 15 271 3.2 11.3 0.00 0.00 0.00 73 1017.6
20260509210518 15 346 3.2 9.7 0.00 0.00 0.00 72 1017.5
20260509205538 15 332 1.6 8.0 0.00 0.00 0.00 71 1017.5
20260509204519 15 325 1.6 9.7 0.00 0.00 0.00 71 1017.4
20260509203519 15 335 1.6 6.4 0.00 0.00 0.00 70 1017.4
20260509202516 15 326 3.2 14.5 0.00 0.00 0.00 69 1017.4